| time (UTC) | temp F | wind direction | speed knots | gust knots | rain 1hr in | rain 24hr in | rain mn in | humidity % | barometer mb |
| 20260507170603 | 56 | 78 | 1.7 | 4.3 | 0.00 | 0.00 | 0.00 | 67 | 1013.9 |
| 20260507163604 | 57 | 76 | 0.9 | 4.3 | 0.00 | 0.00 | 0.00 | 60 | 1013.9 |
| 20260507143603 | 60 | 25 | 2.6 | 6.1 | 0.00 | 0.00 | 0.00 | 50 | 1014.4 |
| 20260507140104 | 60 | 121 | 2.6 | 7.8 | 0.00 | 0.00 | 0.00 | 52 | 1014.8 |
| 20260507133103 | 59 | 23 | 0.9 | 7.0 | 0.00 | 0.00 | 0.00 | 53 | 1014.8 |
| 20260507130603 | 59 | 122 | 1.7 | 8.7 | 0.00 | 0.00 | 0.00 | 57 | 1014.8 |
| 20260507120104 | 58 | 185 | 2.6 | 10.4 | 0.00 | 0.00 | 0.00 | 61 | 1015.3 |
| 20260507113605 | 56 | 146 | 2.6 | 7.8 | 0.00 | 0.00 | 0.00 | 69 | 1015.3 |
| 20260507110603 | 54 | 123 | 3.5 | 7.8 | 0.00 | 0.00 | 0.00 | 69 | 1015.5 |
| 20260507103104 | 53 | 176 | 2.6 | 7.0 | 0.00 | 0.00 | 0.00 | 76 | 1015.7 |
| 20260507093104 | 51 | 178 | 1.7 | 7.0 | 0.00 | 0.00 | 0.00 | 82 | 1015.7 |
| 20260507090106 | 50 | 147 | 0.9 | 5.2 | 0.00 | 0.00 | 0.00 | 83 | 1015.7 |
| 20260507083603 | 49 | 299 | 0.9 | 5.2 | 0.00 | 0.00 | 0.00 | 87 | 1015.7 |
| 20260507083103 | 49 | 137 | 1.7 | 5.2 | 0.00 | 0.00 | 0.00 | 86 | 1015.7 |
| 20260507080604 | 47 | 137 | 2.6 | 6.1 | 0.00 | 0.00 | 0.00 | 89 | 1015.7 |
| 20260507080103 | 47 | 130 | 1.7 | 6.1 | 0.00 | 0.00 | 0.00 | 89 | 1015.7 |
| 20260507073604 | 46 | 114 | 2.6 | 5.2 | 0.00 | 0.00 | 0.00 | 91 | 1015.7 |
| 20260507063103 | 44 | 144 | 0.9 | 5.2 | 0.00 | 0.00 | 0.00 | 98 | 1015.5 |
| 20260507053604 | 41 | 152 | 1.7 | 4.3 | 0.00 | 0.00 | 0.00 | 100 | 1015.3 |
| 20260507053104 | 41 | 152 | 2.6 | 5.2 | 0.00 | 0.00 | 0.00 | 100 | 1015.3 |
| 20260507050603 | 38 | 157 | 0.0 | 1.7 | 0.00 | 0.00 | 0.00 | 100 | 1015.3 |
| 20260507050104 | 38 | 145 | 0.0 | 2.6 | 0.00 | 0.00 | 0.00 | 100 | 1015.3 |
| 20260507040104 | 37 | 176 | 0.0 | 0.0 | 0.00 | 0.00 | 0.00 | 100 | 1015.3 |
| 20260507033603 | 39 | 165 | 0.0 | 0.0 | 0.00 | 0.00 | 0.00 | 100 | 1015.2 |
| 20260507023603 | 39 | 162 | 1.7 | 2.6 | 0.00 | 0.00 | 0.00 | 100 | 1015.3 |
| 20260507020103 | 41 | 172 | 0.9 | 2.6 | 0.00 | 0.00 | 0.00 | 100 | 1015.3 |
| 20260507013603 | 41 | 128 | 0.9 | 1.7 | 0.00 | 0.00 | 0.00 | 100 | 1015.5 |
| 20260507003104 | 39 | 151 | 0.0 | 2.6 | 0.00 | 0.00 | 0.00 | 100 | 1015.7 |
| 20260507000604 | 40 | 168 | 1.7 | 2.6 | 0.00 | 0.00 | 0.00 | 99 | 1015.7 |
| 20260507000104 | 40 | 151 | 0.9 | 4.3 | 0.00 | 0.00 | 0.00 | 99 | 1015.7 |
| 20260506233103 | 41 | 168 | 0.9 | 6.1 | 0.00 | 0.00 | 0.00 | 99 | 1015.7 |
| 20260506230104 | 41 | 166 | 1.7 | 4.3 | 0.00 | 0.00 | 0.00 | 99 | 1015.7 |
| 20260506223104 | 41 | 179 | 0.0 | 5.2 | 0.00 | 0.00 | 0.00 | 100 | 1015.7 |
| 20260506220603 | 40 | 152 | 0.0 | 1.7 | 0.00 | 0.00 | 0.00 | 100 | 1015.7 |
| 20260506220103 | 39 | 144 | 0.0 | 4.3 | 0.00 | 0.00 | 0.00 | 100 | 1015.6 |
| 20260506213603 | 39 | 173 | 0.9 | 2.6 | 0.00 | 0.00 | 0.00 | 99 | 1015.5 |
| 20260506210604 | 39 | 67 | 0.0 | 0.0 | 0.00 | 0.00 | 0.00 | 98 | 1015.3 |
| 20260506200605 | 42 | 147 | 0.9 | 2.6 | 0.00 | 0.00 | 0.00 | 94 | 1014.8 |
| 20260506200104 | 42 | 173 | 1.7 | 5.2 | 0.00 | 0.00 | 0.00 | 93 | 1014.7 |
| 20260506193604 | 44 | 155 | 2.6 | 5.2 | 0.00 | 0.00 | 0.00 | 90 | 1014.5 |
| 20260506193103 | 44 | 152 | 1.7 | 2.6 | 0.00 | 0.00 | 0.00 | 90 | 1014.4 |
| 20260506190603 | 45 | 313 | 0.9 | 2.6 | 0.00 | 0.00 | 0.00 | 89 | 1014.4 |
| 20260506183604 | 47 | 229 | 1.7 | 4.3 | 0.00 | 0.00 | 0.00 | 80 | 1014.4 |
| 20260506180603 | 49 | 16 | 0.0 | 5.2 | 0.00 | 0.00 | 0.00 | 73 | 1014.4 |
| 20260506173103 | 51 | 28 | 1.7 | 7.0 | 0.00 | 0.00 | 0.00 | 65 | 1014.1 |